Regional Weather Roundup
Issued by NWS

Home | Current Version | Previous Version | Graphics & Text | Print | Product List | Glossary On
Versions: 1 2 3 4 5 6 7 8 9 10 11 12 13 14 15 16 17 18 19 20 21 22 23 24 25 26 27 28 29 30 31 32 33 34 35 36 37 38 39 40 41 42 43 44 45 46 47 48 49 50
000
ASUS43 KFSD 301902
RWRSD

WEATHER ROUNDUP FOR SOUTH DAKOTA
NATIONAL WEATHER SERVICE SIOUX FALLS SD
200 PM CDT WED JUL 30 2014

NOTE: "FAIR" INDICATES FEW OR NO CLOUDS BELOW 12,000 FEET WITH NO
SIGNIFICANT WEATHER AND/OR OBSTRUCTIONS TO VISIBILITY.


SDZ001>005-009-010-012>017-302000-
NORTHWEST AND NORTH CENTRAL SOUTH DAKOTA

CITY           SKY/WX    TMP DP  RH WIND       PRES   REMARKS
BUFFALO          N/A     80  47  31 VRB5      30.13F
FAITH            N/A     81  57  43 VRB5      30.14F
MOBRIDGE       CLOUDY    81  56  42 E6        30.10F
$$

SDZ012>016-024>037-041>051-057-063-072>074-302000-
SOUTHWEST AND SOUTH CENTRAL SOUTH DAKOTA

CITY           SKY/WX    TMP DP  RH WIND       PRES   REMARKS
RAPID CTY ARPT SUNNY     82  53  36 NW8       30.18F
PIERRE         SUNNY     84  54  35 VRB6      30.10F
CUSTER         PTSUNNY   72  46  39 E10       30.30F
ELLSWORTH AFB  MOSUNNY   82  47  29 N13       30.18F
PHILIP         MOSUNNY   86  52  30 VRB7      30.11F
PINE RIDGE     PTSUNNY   80  51  36 VRB3      30.20F
WINNER         FAIR      85  49  28 VRB5      30.14F
$$

SDZ004>011-016>023-039-040-302000-
NORTHEAST SOUTH DAKOTA

CITY           SKY/WX    TMP DP  RH WIND       PRES   REMARKS
ABERDEEN       MOSUNNY   78  56  46 NE7       30.12F
WATERTOWN      MOSUNNY   75  54  47 NW8       30.14F
SISSETON         N/A     78  54  43 NE7       30.11F
$$

SDZ017-020-022-023-036>040-048>070-302000-
SOUTHEAST SOUTH DAKOTA

CITY           SKY/WX    TMP DP  RH WIND       PRES   REMARKS
SIOUX FALLS    MOSUNNY   75  55  49 VRB6      30.14F
HURON          SUNNY     80  53  39 N7        30.13F
CHAMBERLAIN    PTSUNNY   80  55  40 CALM      30.13F
MITCHELL       SUNNY     79  55  43 E3        30.14F
YANKTON        SUNNY     75  55  50 E7        30.14F
$$

ABBREVIATIONS USED IN REMARKS
   TC - TEMPERATURE IN CELSIUS
  WCI - WIND CHILL INDEX
   HX - HEAT INDEX
  VSB - VISIBILITY




USA.gov is the U.S. government's official web portal to all federal, state and local government web resources and services.